Location: Newark
(51.3318°N, 0.0053°E)
Time: 12:48:08
(UTC+00:00)

CAS-6 - Pass Details

Date: 10 July 2022
Orbit: 613 x 634 km, 97.9° (Epoch: 08 August)

Event Time Altitude Azimuth Distance (km) Brightness Sun altitude
Exits shadow 22:49:44 16° 204° (SSW) 1,646 ? -14.7°
Maximum altitude 22:52:44 34° 264° (W) 1,019 ? -14.8°
Drops below altitude 10° 22:56:42 10° 330° (NNW) 1,992 ? -15.0°
Sets 22:59:03 0° 340° (NNW) 2,900 ? -15.1°
